EW4427 Weather Reports


time (UTC)temp
F
wind
direction
speed
knots
gust
knots
rain 1hr
in
rain 24hr
in
rain mn
in
humidity
%
barometer
mb
20260507015044 44 0 0.0 2.6 0.00 0.00 0.00 55 1014.3
20260507014555 44 0 0.0 2.6 0.00 0.00 0.00 55 1014.1
20260507014046 44 0 0.0 1.7 0.00 0.00 0.00 54 1014.2
20260507013544 44 179 0.0 2.6 0.00 0.00 0.00 55 1014.1
20260507013114 45 0 0.0 2.6 0.00 0.00 0.00 54 1014.0
20260507012545 45 0 0.0 2.6 0.00 0.00 0.00 53 1014.0
20260507012045 45 0 0.0 2.6 0.00 0.00 0.00 53 1014.0
20260507011554 45 0 0.0 0.9 0.00 0.00 0.00 53 1013.8
20260507011049 46 0 0.0 1.7 0.00 0.00 0.00 53 1013.9
20260507010545 46 0 0.0 2.6 0.00 0.00 0.00 52 1013.8
20260507010054 46 0 0.0 2.6 0.00 0.00 0.00 53 1013.7
20260507005547 47 0 0.0 2.6 0.00 0.00 0.00 51 1013.7
20260507005044 47 0 0.0 3.5 0.00 0.00 0.00 50 1013.6
20260507004558 48 0 0.0 3.5 0.00 0.00 0.00 50 1013.5
20260507004045 48 89 0.0 1.7 0.00 0.00 0.00 49 1013.4
20260507003545 48 0 0.0 0.9 0.00 0.00 0.00 50 1013.4
20260507003100 49 0 0.0 2.6 0.00 0.00 0.00 50 1013.4
20260507002545 49 0 0.0 2.6 0.00 0.00 0.00 48 1013.4
20260507002047 49 0 0.0 2.6 0.00 0.00 0.00 47 1013.3
20260507001611 49 0 0.0 2.6 0.00 0.00 0.00 48 1013.3
20260507001045 49 194 0.0 2.6 0.00 0.00 0.00 49 1013.1
20260507000545 50 0 0.0 1.7 0.00 0.00 0.00 47 1013.0
20260507000057 50 0 0.0 3.5 0.00 0.00 0.00 47 1013.0
20260506235545 50 0 0.0 3.5 0.00 0.00 0.00 47 1013.1
20260506235045 50 168 0.9 3.5 0.00 0.00 0.00 47 1013.1
20260506234600 50 0 0.0 2.6 0.00 0.00 0.00 46 1013.1
20260506234045 50 0 0.0 1.7 0.00 0.00 0.00 48 1013.0
20260506233546 51 0 0.0 1.7 0.00 0.00 0.00 46 1013.0
20260506233108 51 0 0.0 2.6 0.00 0.00 0.00 46 1013.0
20260506232545 51 0 0.0 3.5 0.00 0.00 0.00 47 1013.0
20260506232045 51 0 0.0 3.5 0.00 0.00 0.00 45 1013.0
20260506231554 51 136 0.0 6.1 0.00 0.00 0.00 45 1012.9
20260506231045 51 19 0.9 6.1 0.00 0.00 0.00 44 1012.9
20260506230545 51 65 0.0 2.6 0.00 0.00 0.00 47 1013.0
20260506230058 51 192 0.0 1.7 0.00 0.00 0.00 47 1012.8
20260506225550 51 208 0.0 2.6 0.00 0.00 0.00 48 1012.9
20260506225046 51 304 0.0 3.5 0.00 0.00 0.00 46 1012.8
20260506224605 52 244 0.0 4.3 0.00 0.00 0.00 47 1012.7
20260506224045 52 205 0.0 4.3 0.00 0.00 0.00 46 1012.7
20260506223545 52 0 0.0 3.5 0.00 0.00 0.00 44 1012.7
20260506223059 52 0 0.0 3.5 0.00 0.00 0.00 44 1012.5
20260506222545 52 0 0.0 3.5 0.00 0.00 0.00 46 1012.6
20260506222046 52 196 0.0 1.7 0.00 0.00 0.00 45 1012.6
20260506221557 52 0 0.0 1.7 0.00 0.00 0.00 44 1012.4
20260506221045 52 0 0.0 2.6 0.00 0.00 0.00 46 1012.5
20260506220545 52 0 0.0 2.6 0.00 0.00 0.00 44 1012.4
20260506220104 53 0 0.0 2.6 0.00 0.00 0.00 45 1012.4
20260506215545 53 0 0.0 2.6 0.00 0.00 0.00 45 1012.4
20260506215045 53 0 0.0 2.6 0.00 0.00 0.00 45 1012.3
20260506214551 53 0 0.0 2.6 0.00 0.00 0.00 47 1012.4
20260506214044 53 0 0.0 2.6 0.00 0.00 0.00 45 1012.4
20260506213544 53 0 0.0 2.6 0.00 0.00 0.00 44 1012.4
20260506213057 53 173 0.0 2.6 0.00 0.00 0.00 47 1012.4
20260506212545 53 0 0.0 2.6 0.00 0.00 0.00 46 1012.4
20260506212045 53 0 0.0 2.6 0.00 0.00 0.00 44 1012.2
20260506211557 53 183 0.0 1.7 0.00 0.00 0.00 46 1012.3
20260506211044 54 0 0.0 1.7 0.00 0.00 0.00 45 1012.4
20260506210544 54 0 0.0 1.7 0.00 0.00 0.00 45 1012.4
20260506210057 54 0 0.0 1.7 0.00 0.00 0.00 45 1012.3
20260506205543 54 0 0.0 3.5 0.00 0.00 0.00 47 1012.3
20260506205043 54 0 0.0 3.5 0.00 0.00 0.00 44 1012.3
20260506204554 54 198 0.9 3.5 0.00 0.00 0.00 45 1012.3
20260506204043 54 0 0.0 2.6 0.00 0.00 0.00 46 1012.4
20260506203544 54 0 0.0 2.6 0.00 0.00 0.00 47 1012.4
20260506203059 54 0 0.0 3.5 0.00 0.00 0.00 43 1012.4
20260506202550 55 0 0.0 3.5 0.00 0.00 0.00 46 1012.5
20260506202048 55 240 0.9 2.6 0.00 0.00 0.00 45 1012.5
20260506201551 55 0 0.0 5.2 0.00 0.00 0.00 43 1012.5
20260506201048 55 242 0.0 6.1 0.00 0.00 0.00 44 1012.7
20260506200548 55 0 0.9 6.1 0.00 0.00 0.00 42 1012.6
20260506200054 55 222 1.7 5.2 0.00 0.00 0.00 41 1012.7
20260506195544 55 0 0.0 4.3 0.00 0.00 0.00 44 1012.6
20260506195047 54 0 1.7 4.3 0.00 0.00 0.00 43 1012.6
20260506194554 55 0 0.0 4.3 0.00 0.00 0.00 42 1012.7
20260506194046 55 0 0.0 4.3 0.00 0.00 0.00 42 1012.6
20260506193544 56 198 0.0 5.2 0.00 0.00 0.00 43 1012.7
20260506193053 56 0 0.9 5.2 0.00 0.00 0.00 44 1012.6
20260506192544 54 226 1.7 7.0 0.00 0.00 0.00 46 1012.5
20260506192045 54 205 1.7 7.0 0.00 0.00 0.00 46 1012.6
20260506191548 54 0 0.9 6.1 0.00 0.00 0.00 47 1012.7
20260506191044 54 230 0.9 6.1 0.00 0.00 0.00 46 1012.7
20260506190547 54 0 1.7 5.2 0.00 0.00 0.00 44 1012.7
20260506190052 55 221 0.9 3.5 0.00 0.00 0.00 45 1012.7
20260506185545 55 188 0.0 3.5 0.00 0.00 0.00 43 1012.8
20260506185046 56 212 0.9 6.1 0.00 0.00 0.00 40 1012.6
20260506184554 58 0 0.0 6.1 0.00 0.00 0.00 41 1012.7
20260506184047 57 246 0.9 4.3 0.00 0.00 0.00 43 1012.5
20260506183547 55 184 0.0 2.6 0.00 0.00 0.00 44 1012.6
20260506183100 54 202 0.0 6.1 0.00 0.00 0.00 42 1012.5
20260506182548 55 217 0.0 6.1 0.00 0.00 0.00 48 1012.7
20260506182044 55 248 0.9 4.3 0.00 0.00 0.00 43 1012.7
20260506181625 56 196 0.0 4.3 0.00 0.00 0.00 43 1012.6
20260506181045 57 0 0.9 4.3 0.00 0.00 0.00 39 1012.4
20260506180545 55 188 0.9 4.3 0.00 0.00 0.00 49 1012.5
20260506180058 54 220 0.0 4.3 0.00 0.00 0.00 48 1012.5
20260506175544 53 214 0.9 5.2 0.00 0.00 0.00 44 1012.7
20260506175045 53 0 0.9 5.2 0.00 0.00 0.00 46 1012.7
20260506174555 54 217 1.7 4.3 0.00 0.00 0.00 48 1012.8
20260506174044 54 187 0.9 3.5 0.00 0.00 0.00 47 1012.8
20260506173545 54 200 0.0 5.2 0.00 0.00 0.00 48 1012.9
20260506173120 54 186 0.9 5.2 0.00 0.00 0.00 43 1013.0
20260506172547 53 220 0.0 4.3 0.00 0.00 0.00 45 1012.9
20260506172045 53 46 0.0 4.3 0.00 0.00 0.00 46 1013.0
20260506171601 54 0 0.0 3.5 0.00 0.00 0.00 42 1013.0
20260506171045 55 211 0.9 3.5 0.00 0.00 0.00 46 1013.1
20260506170544 54 197 0.0 3.5 0.00 0.00 0.00 48 1013.3
20260506170104 54 0 0.0 3.5 0.00 0.00 0.00 48 1013.2
20260506165547 54 0 0.0 3.5 0.00 0.00 0.00 48 1013.3
20260506165045 54 259 0.0 1.7 0.00 0.00 0.00 46 1013.3
20260506164559 54 0 0.0 2.6 0.00 0.00 0.00 45 1013.1
20260506164048 53 0 0.0 5.2 0.00 0.00 0.00 46 1013.3
20260506163548 53 0 0.0 5.2 0.00 0.00 0.00 48 1013.3
20260506163059 53 0 0.0 4.3 0.00 0.00 0.00 46 1013.2
20260506162546 52 0 0.0 4.3 0.00 0.00 0.00 49 1013.3
20260506162047 53 150 0.0 2.6 0.00 0.00 0.00 43 1013.3
20260506161550 53 86 0.0 3.5 0.00 0.00 0.00 45 1013.2
20260506161044 52 0 0.9 3.5 0.00 0.00 0.00 49 1013.2
20260506160544 52 209 0.0 3.5 0.00 0.00 0.00 45 1013.2
20260506160108 53 169 0.0 2.6 0.00 0.00 0.00 46 1013.2
20260506155545 54 173 0.0 2.6 0.00 0.00 0.00 46 1013.0
20260506155045 54 64 0.0 4.3 0.00 0.00 0.00 49 1013.0
20260506154555 52 0 0.0 4.3 0.00 0.00 0.00 43 1013.1
20260506154045 53 0 0.0 3.5 0.00 0.00 0.00 44 1013.1
20260506153545 53 173 0.0 3.5 0.00 0.00 0.00 45 1013.1
20260506153053 54 190 0.0 3.5 0.00 0.00 0.00 49 1013.0
20260506152547 52 32 0.0 4.3 0.00 0.00 0.00 49 1012.9
20260506152045 50 0 0.0 4.3 0.00 0.00 0.00 51 1012.9
20260506151551 50 185 0.0 3.5 0.00 0.00 0.00 50 1012.9
20260506151044 51 195 0.0 1.7 0.00 0.00 0.00 49 1013.0
20260506150544 51 233 0.0 3.5 0.00 0.00 0.00 49 1013.0
20260506150057 51 0 0.0 6.1 0.00 0.00 0.00 48 1013.0
20260506145545 52 0 0.9 6.1 0.00 0.00 0.00 50 1012.9
20260506145046 51 200 1.7 6.1 0.00 0.00 0.00 50 1012.9
20260506144552 52 208 2.6 6.1 0.00 0.00 0.00 50 1012.9
20260506144044 52 0 0.0 4.3 0.00 0.00 0.00 53 1012.9
20260506143547 52 0 0.0 4.3 0.00 0.00 0.00 50 1013.0
20260506143054 51 0 1.7 4.3 0.00 0.00 0.00 54 1012.9
20260506142546 51 212 0.9 5.2 0.00 0.00 0.00 50 1012.9
20260506142050 51 231 1.7 5.2 0.00 0.00 0.00 52 1012.9
20260506141549 50 0 0.9 4.3 0.00 0.00 0.00 49 1012.9
20260506141047 50 0 0.0 4.3 0.00 0.00 0.00 53 1013.0
20260506140547 49 194 1.7 4.3 0.00 0.00 0.00 53 1012.9
20260506140053 49 0 1.7 4.3 0.00 0.00 0.00 53 1013.0
20260506135545 49 202 1.7 4.3 0.00 0.00 0.00 55 1012.9
20260506135044 49 193 0.9 3.5 0.00 0.00 0.00 52 1013.0
20260506134551 49 178 0.0 2.6 0.00 0.00 0.00 55 1013.0
20260506134044 48 189 0.9 2.6 0.00 0.00 0.00 57 1012.9
20260506133545 48 0 0.0 2.6 0.00 0.00 0.00 60 1013.0
20260506133056 47 0 0.0 4.3 0.00 0.00 0.00 61 1013.0
20260506132545 47 0 0.0 4.3 0.00 0.00 0.00 62 1013.0
20260506132045 47 210 0.9 4.3 0.00 0.00 0.00 62 1012.9
20260506131602 46 197 1.7 2.6 0.00 0.00 0.00 65 1012.9
20260506131044 46 209 0.9 2.6 0.00 0.00 0.00 63 1012.8
20260506130544 45 0 0.0 2.6 0.00 0.00 0.00 67 1012.8
20260506130057 45 211 0.0 0.0 0.00 0.00 0.00 65 1012.7
20260506125544 44 0 0.0 0.0 0.00 0.00 0.00 67 1012.7
20260506125044 44 0 0.0 0.0 0.00 0.00 0.00 68 1012.8
20260506124600 43 0 0.0 0.0 0.00 0.00 0.00 69 1012.7
20260506124046 43 0 0.0 0.0 0.00 0.00 0.00 71 1012.6
20260506123546 42 0 0.0 0.0 0.00 0.00 0.00 71 1012.6
20260506123053 42 0 0.0 0.0 0.00 0.00 0.00 73 1012.4
20260506122547 42 0 0.0 0.0 0.00 0.00 0.00 75 1012.4
20260506122046 41 0 0.0 0.0 0.00 0.00 0.00 75 1012.4
20260506121555 40 0 0.0 0.0 0.00 0.00 0.00 78 1012.4
20260506121045 40 0 0.0 0.0 0.00 0.00 0.00 79 1012.2
20260506120547 39 0 0.0 0.0 0.00 0.00 0.00 81 1012.2
20260506120053 38 0 0.0 0.0 0.00 0.00 0.00 82 1012.2
20260506115546 38 0 0.0 0.0 0.00 0.00 0.00 83 1012.2
20260506115043 37 0 0.0 0.0 0.00 0.00 0.00 85 1012.2
20260506114559 36 0 0.0 0.0 0.00 0.00 0.00 86 1012.1
20260506114047 36 0 0.0 0.0 0.00 0.00 0.00 87 1012.0
20260506113546 36 0 0.0 0.0 0.00 0.00 0.00 87 1012.0
20260506113053 35 0 0.0 0.0 0.00 0.00 0.00 87 1012.1
20260506112548 35 0 0.0 0.0 0.00 0.00 0.00 87 1012.0
20260506112045 35 0 0.0 0.0 0.00 0.00 0.00 87 1012.0
20260506111559 34 0 0.0 0.0 0.00 0.00 0.00 86 1012.0
20260506111044 34 0 0.0 0.0 0.00 0.00 0.00 86 1011.9
20260506110544 34 0 0.0 0.0 0.00 0.00 0.00 85 1011.9
20260506110050 34 0 0.0 0.0 0.00 0.00 0.00 84 1011.8
20260506105545 34 0 0.0 0.0 0.00 0.00 0.00 84 1011.6
20260506105046 34 0 0.0 0.0 0.00 0.00 0.00 83 1011.5
20260506104555 34 0 0.0 0.0 0.00 0.00 0.00 83 1011.5
20260506104048 35 0 0.0 0.0 0.00 0.00 0.00 82 1011.4
20260506103547 35 0 0.0 0.0 0.00 0.00 0.00 83 1011.4
20260506103050 35 0 0.0 0.0 0.00 0.00 0.00 83 1011.3
20260506102547 35 0 0.0 0.0 0.00 0.00 0.00 82 1011.2
20260506102047 35 0 0.0 0.0 0.00 0.00 0.00 82 1011.3
20260506101552 35 0 0.0 0.0 0.00 0.00 0.00 83 1011.3
20260506101046 35 0 0.0 0.0 0.00 0.00 0.00 83 1011.3
20260506100547 35 0 0.0 0.0 0.00 0.00 0.00 82 1011.3
20260506100051 35 0 0.0 0.0 0.00 0.00 0.00 82 1011.2
20260506095547 35 0 0.0 0.0 0.00 0.00 0.00 81 1011.3
20260506095046 35 0 0.0 0.0 0.00 0.00 0.00 81 1011.3
20260506094621 36 0 0.0 0.0 0.00 0.00 0.00 81 1011.3
20260506094045 36 0 0.0 0.0 0.00 0.00 0.00 82 1011.4
20260506093545 36 0 0.0 0.0 0.00 0.00 0.00 82 1011.5
20260506093055 36 0 0.0 0.0 0.00 0.00 0.00 82 1011.5
20260506092547 36 0 0.0 0.0 0.00 0.00 0.00 82 1011.5
20260506092047 36 0 0.0 0.0 0.00 0.00 0.00 82 1011.5
20260506091554 36 0 0.0 0.0 0.00 0.00 0.00 82 1011.3
20260506091046 36 0 0.0 0.0 0.00 0.00 0.00 82 1011.3
20260506090546 36 0 0.0 0.0 0.00 0.00 0.00 82 1011.5
20260506090053 36 0 0.0 0.0 0.00 0.00 0.00 81 1011.6
20260506085547 36 0 0.0 0.0 0.00 0.00 0.00 80 1011.4
20260506085047 36 0 0.0 0.0 0.00 0.00 0.00 80 1011.5
20260506084553 36 0 0.0 0.0 0.00 0.00 0.00 79 1011.4
20260506084047 36 0 0.0 0.0 0.00 0.00 0.00 78 1011.3
20260506083550 36 0 0.0 0.0 0.00 0.00 0.00 77 1011.3
20260506083051 36 0 0.0 0.0 0.00 0.00 0.00 76 1011.4
20260506082545 36 0 0.0 0.0 0.00 0.00 0.00 75 1011.3
20260506082045 36 0 0.0 0.0 0.00 0.00 0.00 75 1011.1
20260506081558 36 0 0.0 0.0 0.00 0.00 0.00 73 1011.1
20260506081044 36 0 0.0 0.0 0.00 0.00 0.00 72 1011.0
20260506080546 36 0 0.0 0.0 0.00 0.00 0.00 72 1011.0
20260506073057 38 0 0.0 0.0 0.00 0.00 0.00 73 1010.8
20260506072548 38 0 0.0 0.0 0.00 0.00 0.00 73 1010.7
20260506072047 38 0 0.0 0.0 0.00 0.00 0.00 73 1010.8
20260506071555 39 0 0.0 0.0 0.00 0.00 0.00 72 1010.7
20260506071046 39 0 0.0 0.0 0.00 0.00 0.00 72 1010.9
20260506070546 39 0 0.0 0.0 0.00 0.00 0.00 72 1010.7
20260506062048 41 0 0.0 0.0 0.00 0.00 0.00 65 1011.0
20260506061557 41 0 0.0 0.0 0.00 0.00 0.00 65 1011.0
20260506061047 41 0 0.0 0.0 0.00 0.00 0.00 62 1010.9
20260506060547 41 0 0.0 0.0 0.00 0.00 0.00 62 1011.0
20260506060120 42 0 0.0 0.0 0.00 0.00 0.00 62 1010.8
20260506051047 42 0 0.0 0.0 0.00 0.00 0.00 61 1011.1
20260506050547 42 0 0.0 0.0 0.00 0.00 0.00 61 1011.1
20260506045048 43 0 0.0 0.0 0.00 0.00 0.00 54 1011.1
20260506044605 43 0 0.0 0.0 0.00 0.00 0.00 53 1011.1
20260506044047 43 0 0.0 0.0 0.00 0.00 0.00 53 1011.1
20260506043544 44 0 0.0 0.0 0.00 0.00 0.00 53 1011.0
20260506043103 44 0 0.0 0.0 0.00 0.00 0.00 53 1010.9
20260506042548 44 0 0.0 0.0 0.00 0.00 0.00 51 1011.0
20260506042046 45 0 0.0 0.0 0.00 0.00 0.00 52 1011.0
20260506041559 45 0 0.0 0.0 0.00 0.00 0.00 50 1011.0
20260506041046 45 0 0.0 0.0 0.00 0.00 0.00 50 1010.9
20260506040545 45 0 0.0 0.0 0.00 0.00 0.00 49 1010.9
20260506040056 46 0 0.0 0.0 0.00 0.00 0.00 49 1010.7
20260506035546 46 0 0.0 2.6 0.00 0.00 0.00 48 1010.7
20260506035046 46 0 0.0 2.6 0.00 0.00 0.00 48 1010.5
20260506034600 47 0 0.9 4.3 0.00 0.00 0.00 47 1010.4
20260506034045 47 11 0.9 4.3 0.00 0.00 0.00 47 1010.3
20260506033545 47 24 1.7 4.3 0.00 0.00 0.00 46 1010.4
20260506033052 47 21 0.0 1.7 0.00 0.00 0.00 48 1010.4
20260506032549 47 0 0.0 1.7 0.00 0.00 0.00 47 1010.4
20260506032048 47 0 0.0 2.6 0.00 0.00 0.00 47 1010.2
20260506031559 47 30 0.0 3.5 0.00 0.00 0.00 48 1010.4
20260506031045 47 0 0.0 3.5 0.00 0.00 0.00 47 1010.2
20260506030548 47 26 0.9 3.5 0.00 0.00 0.00 47 1010.2
20260506030053 47 18 0.0 3.5 0.00 0.00 0.00 48 1010.1
20260506025547 47 5 0.9 3.5 0.00 0.00 0.00 49 1010.1
20260506025047 47 0 0.0 0.9 0.00 0.00 0.00 50 1010.1
20260506024601 47 0 0.0 0.9 0.00 0.00 0.00 49 1010.0
20260506024046 47 0 0.0 0.0 0.00 0.00 0.00 49 1010.0
20260506023547 47 0 0.0 0.0 0.00 0.00 0.00 49 1009.9
20260506023100 48 0 0.0 0.0 0.00 0.00 0.00 47 1009.9
20260506022545 48 0 0.0 0.0 0.00 0.00 0.00 47 1009.9
20260506022045 48 0 0.0 0.0 0.00 0.00 0.00 46 1009.7
20260506021553 49 0 0.0 0.9 0.00 0.00 0.00 45 1009.6
20260506021046 49 0 0.0 1.7 0.00 0.00 0.00 46 1009.6
20260506020545 49 0 0.0 1.7 0.00 0.00 0.00 44 1009.4
20260506020053 49 0 0.0 1.7 0.00 0.00 0.00 44 1009.3
20260506015545 49 0 0.0 0.9 0.00 0.00 0.00 44 1009.3